Hourly Data Report for June 27, 2020

OTTAWA INTL A
ONTARIO
Current Station Operator: NAVCAN

45°19'00.000" N
75°40'00.000" W
114.90 m
6106001
71628
YOW

Download Data

Hourly Data (June 2020)
Hourly Data Report for June 27, 2020
TIME Temp Definition
°C
Dew Point Definition
°C
Rel Hum Definition
%
Wind Dir Definition
10's deg

Wind Spd Definition
km/h
Visibility Definition
km
Stn Press Definition
kPa
Hmdx Definition


Wind Chill Definition


Weather Definition


00:00 18.4 12.9 70 19 13 24.1 99.43     LegendNANA
01:00 17.3 12.8 74 19 10 24.1 99.41     Mostly Cloudy
02:00 17.2 12.8 75 19 8 24.1 99.41     LegendNANA
03:00 17.0 12.8 76 18 9 24.1 99.35     LegendNANA
04:00 17.0 12.6 75 19 12 24.1 99.36     Mostly Cloudy
05:00 16.9 12.5 75 20 8 24.1 99.36     LegendNANA
06:00 16.9 12.8 77 21 10 24.1 99.35     Rain
07:00 16.8 13.8 82 19 9 24.1 99.30     Rain
08:00 19.1 14.3 73 23 7 24.1 99.27     LegendNANA
09:00 21.0 14.8 67 17 10 24.1 99.23 25   LegendNANA
10:00 22.0 14.4 62 18 8 24.1 99.21 26   Mostly Cloudy
11:00 22.4 14.9 62 15 13 24.1 99.19 26   LegendNANA
12:00 26.2 15.3 51 19 17 24.1 99.09 30   LegendNANA
13:00 25.7 15.6 53 18 25 24.1 99.01 30   Mostly Cloudy
14:00 24.4 15.8 58 20 14 24.1 99.03 29   LegendNANA
15:00 22.0 17.8 77 21 13 24.1 99.08 28   Rain
16:00 21.1 18.9 87 18 19 24.1 98.91 28   Mostly Cloudy
17:00 21.5 18.9 85 19 14 24.1 98.96 28   LegendNANA
18:00 21.2 19.0 87 21 7 24.1 99.03 28   LegendNANA
19:00 21.0 18.6 86 24 4 24.1 99.03 27   Mostly Cloudy
20:00 20.1 18.5 90 12 10 24.1 99.05 26   LegendNANA
21:00 18.7 17.8 94 17 7 24.1 99.08     LegendNANA
22:00 16.9 16.0 95 14 7 24.1 99.06     Mainly Clear
23:00 17.3 16.8 97 21 7 24.1 99.08     LegendNANA

Notes on Data Quality.

Legend

  • E = Estimated
  • M = Missing
  • NA = Not Available*
  • [empty] = Indicates an unobserved value
Date modified: